When you browse on this site, cookies collect data to enhance your experience and personalize the content and advertising you see.
Visit our Privacy Policy to learn more. By continuing to use the site, you agree to this use of cookies and data.
  • In Lithuania
  • List of Countries
  • For 7 days
  • Water Temperature
  • Satellite Maps
  • Weather Map
  • Weather Widgets
  • user-avatar
    Login

    Hourly Weather Szymany

    Today, 22 February, Friday

    Time Temperature Precipitation Wind Pressure Humidity
    00:00 +3°C° 0.7 mm 5 mps 752 mmHg 94%
    01:00 +4°C° 0 mm 4 mps 753 mmHg 93%
    02:00 +1°C° 0.3 mm 5 mps 753 mmHg 90%
    03:00 -1°C° 0.3 mm 6 mps 754 mmHg 86%
    04:00 -3°C° 0.3 mm 7 mps 754 mmHg 83%
    05:00 -3°C° 0 mm 7 mps 756 mmHg 77%
    06:00 -4°C° 0 mm 7 mps 757 mmHg 72%
    07:00 -6°C° 0 mm 7 mps 759 mmHg 66%
    08:00 -6°C° 0 mm 7 mps 760 mmHg 61%
    09:00 -4°C° 0 mm 7 mps 761 mmHg 55%
    10:00 -4°C° 0 mm 7 mps 763 mmHg 50%
    11:00 -4°C° 0 mm 6 mps 763 mmHg 47%
    12:00 -4°C° 0 mm 6 mps 764 mmHg 44%
    13:00 -3°C° 0 mm 6 mps 764 mmHg 41%
    14:00 -4°C° 0 mm 6 mps 765 mmHg 42%
    15:00 -4°C° 0 mm 5 mps 765 mmHg 42%
    16:00 -4°C° 0 mm 5 mps 766 mmHg 43%
    17:00 -4°C° 0 mm 5 mps 766 mmHg 44%
    18:00 -4°C° 0 mm 4 mps 767 mmHg 46%
    19:00 -4°C° 0 mm 4 mps 768 mmHg 48%
    20:00 -4°C° 0 mm 4 mps 768 mmHg 46%
    21:00 -5°C° 0 mm 4 mps 769 mmHg 44%
    22:00 -5°C° 0 mm 4 mps 769 mmHg 42%
    23:00 -5°C° 0 mm 4 mps 770 mmHg 41%

    Tomorrow, 23 February, Saturday

    Time Temperature Precipitation Wind Pressure Humidity
    00:00 -5°C° 0 mm 3 mps 770 mmHg 40%
    01:00 -5°C° 0 mm 3 mps 770 mmHg 39%
    02:00 -5°C° 0 mm 3 mps 770 mmHg 39%
    03:00 -4°C° 0 mm 2 mps 770 mmHg 40%
    04:00 -4°C° 0 mm 2 mps 770 mmHg 40%
    05:00 -4°C° 0 mm 2 mps 770 mmHg 41%
    06:00 -4°C° 0 mm 2 mps 770 mmHg 42%
    07:00 -2°C° 0 mm 1 mps 771 mmHg 42%
    08:00 -2°C° 0 mm 1 mps 771 mmHg 39%
    09:00 -1°C° 0 mm 1 mps 771 mmHg 36%
    10:00 -1°C° 0 mm 1 mps 771 mmHg 33%
    11:00 0°C° 0 mm 1 mps 770 mmHg 30%
    12:00 +1°C° 0 mm 1 mps 770 mmHg 28%
    13:00 +1°C° 0 mm 1 mps 770 mmHg 26%
    14:00 0°C° 0 mm 0 mps 770 mmHg 27%
    15:00 0°C° 0 mm 0 mps 770 mmHg 28%
    16:00 0°C° 0 mm 0 mps 769 mmHg 29%
    17:00 0°C° 0 mm 0 mps 769 mmHg 31%
    18:00 -1°C° 0 mm 0 mps 769 mmHg 34%
    19:00 0°C° 0 mm 1 mps 769 mmHg 36%
    20:00 0°C° 0 mm 1 mps 769 mmHg 36%
    21:00 0°C° 0 mm 1 mps 768 mmHg 36%
    22:00 -2°C° 0 mm 2 mps 768 mmHg 37%
    23:00 -2°C° 0 mm 2 mps 768 mmHg 37%

    Day after tomorrow, 24 February, Sunday

    Time Temperature Precipitation Wind Pressure Humidity
    00:00 -2°C° 0 mm 2 mps 768 mmHg 38%
    01:00 -2°C° 0 mm 3 mps 768 mmHg 38%
    02:00 -2°C° 0 mm 3 mps 767 mmHg 38%
    03:00 -2°C° 0 mm 3 mps 767 mmHg 38%
    04:00 -2°C° 0 mm 3 mps 767 mmHg 39%
    05:00 -2°C° 0 mm 2 mps 767 mmHg 40%
    06:00 -2°C° 0 mm 2 mps 767 mmHg 40%
    07:00 -2°C° 0 mm 2 mps 767 mmHg 41%
    08:00 -1°C° 0 mm 2 mps 767 mmHg 39%
    09:00 0°C° 0 mm 3 mps 767 mmHg 37%
    10:00 +1°C° 0 mm 3 mps 767 mmHg 34%
    11:00 +2°C° 0 mm 3 mps 766 mmHg 34%
    12:00 +3°C° 0 mm 4 mps 766 mmHg 34%
    13:00 +4°C° 0 mm 4 mps 766 mmHg 34%
    14:00 +4°C° 0 mm 3 mps 766 mmHg 38%
    15:00 +3°C° 0 mm 3 mps 766 mmHg 43%
    16:00 +4°C° 0 mm 2 mps 766 mmHg 48%
    17:00 +3°C° 0 mm 2 mps 766 mmHg 51%
    18:00 +3°C° 0 mm 2 mps 766 mmHg 54%
    19:00 +1°C° 0 mm 3 mps 766 mmHg 57%
    20:00 +1°C° 0 mm 3 mps 766 mmHg 59%
    21:00 0°C° 0 mm 3 mps 766 mmHg 61%
    22:00 0°C° 0 mm 3 mps 766 mmHg 63%
    23:00 0°C° 0 mm 3 mps 766 mmHg 64%

    25 February, Monday

    Time Temperature Precipitation Wind Pressure Humidity
    00:00 0°C° 0 mm 3 mps 766 mmHg 66%
    01:00 0°C° 0 mm 3 mps 766 mmHg 67%
    02:00 0°C° 0 mm 3 mps 766 mmHg 68%
    03:00 0°C° 0 mm 3 mps 766 mmHg 68%
    04:00 -1°C° 0 mm 3 mps 765 mmHg 69%
    05:00 -1°C° 0 mm 3 mps 765 mmHg 71%
    06:00 -1°C° 0 mm 3 mps 765 mmHg 73%
    07:00 -1°C° 0 mm 3 mps 766 mmHg 75%
    08:00 +1°C° 0 mm 3 mps 766 mmHg 74%
    09:00 +2°C° 0 mm 3 mps 766 mmHg 72%
    10:00 +3°C° 0 mm 4 mps 766 mmHg 71%
    11:00 +4°C° 0 mm 3 mps 766 mmHg 71%
    12:00 +5°C° 0 mm 3 mps 766 mmHg 71%
    13:00 +7°C° 0 mm 3 mps 765 mmHg 71%
    14:00 +7°C° 0 mm 3 mps 765 mmHg 72%
    15:00 +7°C° 0 mm 2 mps 765 mmHg 73%
    16:00 +8°C° 0 mm 2 mps 765 mmHg 74%
    17:00 +7°C° 0 mm 2 mps 765 mmHg 78%
    18:00 +6°C° 0 mm 2 mps 765 mmHg 83%
    19:00 +5°C° 0 mm 2 mps 765 mmHg 87%
    20:00 +4°C° 0 mm 2 mps 765 mmHg 88%
    21:00 +3°C° 0 mm 3 mps 764 mmHg 89%
    22:00 +3°C° 0 mm 3 mps 764 mmHg 89%
    23:00 +2°C° 0 mm 3 mps 763 mmHg 87%

    26 February, Tuesday

    Time Temperature Precipitation Wind Pressure Humidity
    00:00 +2°C° 0 mm 3 mps 763 mmHg 85%
    01:00 +1°C° 0 mm 4 mps 762 mmHg 83%
    02:00 +1°C° 0 mm 4 mps 762 mmHg 81%
    03:00 +1°C° 0 mm 4 mps 761 mmHg 80%
    04:00 +1°C° 0 mm 5 mps 761 mmHg 78%
    05:00 +1°C° 0 mm 5 mps 760 mmHg 79%
    06:00 +1°C° 0 mm 5 mps 760 mmHg 79%
    07:00 +1°C° 0 mm 5 mps 759 mmHg 79%
    08:00 +2°C° 0 mm 5 mps 759 mmHg 76%
    09:00 +2°C° 0 mm 5 mps 759 mmHg 72%
    10:00 +3°C° 0 mm 6 mps 759 mmHg 68%
    11:00 +5°C° 0 mm 5 mps 759 mmHg 68%
    12:00 +6°C° 0 mm 5 mps 759 mmHg 69%
    13:00 +6°C° 0 mm 5 mps 759 mmHg 69%
    14:00 +7°C° 0 mm 5 mps 759 mmHg 66%
    15:00 +7°C° 0 mm 5 mps 759 mmHg 63%
    16:00 +8°C° 0 mm 5 mps 759 mmHg 60%
    17:00 +7°C° 0 mm 5 mps 759 mmHg 61%
    18:00 +5°C° 0 mm 4 mps 760 mmHg 63%
    19:00 +4°C° 0 mm 4 mps 760 mmHg 65%
    20:00 +4°C° 0 mm 4 mps 760 mmHg 66%
    21:00 +3°C° 0 mm 4 mps 760 mmHg 68%
    22:00 +1°C° 0 mm 4 mps 760 mmHg 69%
    23:00 +1°C° 0 mm 4 mps 760 mmHg 72%

    27 February, Wednesday

    Time Temperature Precipitation Wind Pressure Humidity
    00:00 0°C° 0 mm 4 mps 761 mmHg 75%
    01:00 0°C° 0 mm 4 mps 761 mmHg 78%
    02:00 0°C° 0 mm 3 mps 761 mmHg 81%
    03:00 0°C° 0 mm 3 mps 761 mmHg 83%
    04:00 -1°C° 0 mm 3 mps 761 mmHg 85%
    05:00 -1°C° 0 mm 2 mps 761 mmHg 85%
    06:00 -1°C° 0 mm 2 mps 760 mmHg 84%
    07:00 -1°C° 0 mm 2 mps 760 mmHg 84%
    08:00 +2°C° 0 mm 2 mps 760 mmHg 76%
    09:00 +3°C° 0 mm 2 mps 760 mmHg 69%
    10:00 +5°C° 0 mm 2 mps 760 mmHg 61%
    11:00 +6°C° 0 mm 2 mps 760 mmHg 56%
    12:00 +7°C° 0 mm 3 mps 759 mmHg 51%
    13:00 +8°C° 0 mm 3 mps 758 mmHg 46%
    14:00 +9°C° 0 mm 3 mps 758 mmHg 47%
    15:00 +8°C° 0 mm 4 mps 757 mmHg 47%
    16:00 +8°C° 0 mm 4 mps 756 mmHg 48%
    17:00 +7°C° 0 mm 4 mps 755 mmHg 52%
    18:00 +6°C° 0 mm 4 mps 755 mmHg 56%
    19:00 +5°C° 0 mm 4 mps 754 mmHg 60%
    20:00 +5°C° 0 mm 5 mps 754 mmHg 63%
    21:00 +5°C° 0 mm 5 mps 753 mmHg 66%
    22:00 +5°C° 0 mm 5 mps 752 mmHg 68%
    23:00 +5°C° 0 mm 5 mps 751 mmHg 75%
    Show more